| time (UTC) | temp F | wind direction | speed MPH | gust MPH | rain 1hr in | rain 24hr in | rain mn in | humidity % | barometer mb |
| 20260505074642 | 61 | 227 | 0.0 | 0.0 | 0.00 | 0.01 | 0.01 | 75 | 1007.8 |
| 20260505073611 | 62 | 96 | 0.0 | 0.0 | 0.00 | 0.00 | 0.01 | 71 | 1007.7 |
| 20260505072614 | 63 | 165 | 3.0 | 7.0 | 0.00 | 0.00 | 0.00 | 66 | 1007.9 |
| 20260505071632 | 63 | 210 | 3.0 | 7.0 | 0.00 | 0.00 | 0.00 | 67 | 1007.6 |
| 20260505070627 | 62 | 164 | 1.0 | 4.0 | 0.00 | 0.00 | 0.00 | 69 | 1007.0 |
| 20260505065645 | 62 | 168 | 0.0 | 5.0 | 0.00 | 0.00 | 0.00 | 69 | 1006.8 |
| 20260505064615 | 62 | 171 | 1.0 | 5.0 | 0.00 | 0.00 | 0.00 | 69 | 1006.8 |
| 20260505063635 | 62 | 120 | 0.0 | 3.0 | 0.00 | 0.00 | 0.00 | 69 | 1006.8 |
| 20260505062629 | 62 | 161 | 0.0 | 4.0 | 0.00 | 0.00 | 0.00 | 68 | 1006.9 |
| 20260505061625 | 62 | 165 | 0.0 | 4.0 | 0.00 | 0.00 | 0.00 | 68 | 1006.9 |
| 20260505060559 | 62 | 203 | 0.0 | 1.0 | 0.00 | 0.00 | 0.00 | 67 | 1006.9 |
| 20260505055531 | 63 | 185 | 0.0 | 4.0 | 0.00 | 0.00 | 0.00 | 67 | 1007.1 |
| 20260505054545 | 62 | 191 | 0.0 | 4.0 | 0.00 | 0.00 | 0.00 | 67 | 1007.2 |
| 20260505053537 | 62 | 137 | 0.0 | 0.0 | 0.00 | 0.00 | 0.00 | 68 | 1007.2 |
| 20260505052601 | 62 | 153 | 0.0 | 0.0 | 0.00 | 0.00 | 0.00 | 68 | 1007.2 |
| 20260505051616 | 62 | 154 | 0.0 | 4.0 | 0.00 | 0.00 | 0.00 | 67 | 1007.2 |
| 20260505050556 | 62 | 165 | 0.0 | 2.0 | 0.00 | 0.00 | 0.00 | 68 | 1007.3 |
| 20260505041549 | 61 | 172 | 0.0 | 0.0 | 0.00 | 0.00 | 0.00 | 69 | 1007.1 |
| 20260505040552 | 61 | 192 | 0.0 | 1.0 | 0.00 | 0.00 | 0.00 | 69 | 1007.2 |
| 20260505034433 | 62 | 101 | 0.0 | 0.0 | 0.00 | 0.00 | 0.00 | 67 | 1007.1 |
| 20260505033419 | 63 | 142 | 0.0 | 0.0 | 0.00 | 0.00 | 0.00 | 65 | 1007.2 |
| 20260505032439 | 63 | 171 | 0.0 | 1.0 | 0.00 | 0.00 | 0.00 | 65 | 1007.2 |
| 20260505031442 | 64 | 165 | 0.0 | 1.0 | 0.00 | 0.00 | 0.00 | 64 | 1007.3 |
| 20260505025410 | 64 | 165 | 0.0 | 0.0 | 0.00 | 0.00 | 0.00 | 63 | 1007.4 |
| 20260505024346 | 64 | 201 | 0.0 | 2.0 | 0.00 | 0.00 | 0.00 | 63 | 1007.3 |
| 20260505023350 | 65 | 107 | 0.0 | 2.0 | 0.00 | 0.00 | 0.00 | 62 | 1007.4 |
| 20260505022324 | 65 | 175 | 0.0 | 1.0 | 0.00 | 0.00 | 0.00 | 62 | 1007.4 |
| 20260505021346 | 66 | 118 | 0.0 | 1.0 | 0.00 | 0.00 | 0.00 | 60 | 1007.5 |
| 20260505020409 | 66 | 139 | 1.0 | 3.0 | 0.00 | 0.00 | 0.00 | 60 | 1007.5 |
| 20260505014311 | 67 | 156 | 2.0 | 7.0 | 0.00 | 0.00 | 0.00 | 58 | 1007.6 |
| 20260505013318 | 67 | 144 | 2.0 | 6.0 | 0.00 | 0.00 | 0.00 | 58 | 1007.5 |
| 20260505011159 | 68 | 165 | 2.0 | 10.0 | 0.00 | 0.00 | 0.00 | 57 | 1007.2 |
| 20260505005042 | 69 | 148 | 2.0 | 9.0 | 0.00 | 0.00 | 0.00 | 56 | 1007.0 |
| 20260505004012 | 69 | 137 | 2.0 | 6.0 | 0.00 | 0.00 | 0.00 | 55 | 1006.9 |
| 20260505002942 | 69 | 133 | 2.0 | 7.0 | 0.00 | 0.00 | 0.00 | 55 | 1006.6 |
| 20260505001911 | 69 | 180 | 2.0 | 7.0 | 0.00 | 0.00 | 0.00 | 54 | 1006.8 |
| 20260505000907 | 69 | 151 | 3.0 | 10.0 | 0.00 | 0.00 | 0.00 | 54 | 1006.9 |
| 20260504235906 | 70 | 177 | 4.0 | 12.0 | 0.00 | 0.00 | 0.00 | 53 | 1006.8 |
| 20260504234901 | 70 | 153 | 5.0 | 12.0 | 0.00 | 0.00 | 0.00 | 53 | 1006.8 |
| 20260504233906 | 70 | 178 | 3.0 | 11.0 | 0.00 | 0.00 | 0.00 | 53 | 1006.6 |
| 20260504232841 | 71 | 178 | 6.0 | 14.0 | 0.00 | 0.00 | 0.00 | 52 | 1006.7 |
| 20260504231820 | 71 | 164 | 7.0 | 16.0 | 0.00 | 0.00 | 0.00 | 52 | 1007.0 |
| 20260504230812 | 71 | 171 | 7.0 | 16.0 | 0.00 | 0.00 | 0.00 | 51 | 1006.7 |
| 20260504225745 | 72 | 171 | 5.0 | 23.0 | 0.00 | 0.00 | 0.00 | 50 | 1006.7 |
| 20260504224743 | 72 | 191 | 8.0 | 23.0 | 0.00 | 0.00 | 0.00 | 49 | 1006.8 |
| 20260504223803 | 72 | 219 | 5.0 | 16.0 | 0.00 | 0.00 | 0.00 | 50 | 1006.9 |
| 20260504220538 | 72 | 167 | 7.0 | 16.0 | 0.00 | 0.00 | 0.00 | 49 | 1006.6 |
| 20260504215551 | 72 | 148 | 5.0 | 13.0 | 0.00 | 0.00 | 0.00 | 49 | 1006.6 |
| 20260504214534 | 72 | 168 | 4.0 | 18.0 | 0.00 | 0.00 | 0.00 | 50 | 1006.5 |
| 20260504213544 | 72 | 172 | 7.0 | 18.0 | 0.00 | 0.00 | 0.00 | 49 | 1006.5 |
| 20260504212553 | 72 | 215 | 6.0 | 13.0 | 0.00 | 0.00 | 0.00 | 48 | 1006.6 |
| 20260504211608 | 73 | 168 | 5.0 | 11.0 | 0.00 | 0.00 | 0.00 | 49 | 1006.6 |
| 20260504210535 | 73 | 175 | 5.0 | 13.0 | 0.00 | 0.00 | 0.00 | 48 | 1006.6 |
| 20260504205500 | 73 | 178 | 8.0 | 17.0 | 0.00 | 0.00 | 0.00 | 47 | 1006.6 |
| 20260504204434 | 73 | 125 | 9.0 | 20.0 | 0.00 | 0.00 | 0.00 | 47 | 1006.6 |
| 20260504203434 | 74 | 163 | 7.0 | 22.0 | 0.00 | 0.00 | 0.00 | 45 | 1006.7 |
| 20260504202421 | 73 | 168 | 9.0 | 22.0 | 0.00 | 0.00 | 0.00 | 47 | 1006.7 |
| 20260504201350 | 73 | 195 | 6.0 | 17.0 | 0.00 | 0.00 | 0.00 | 47 | 1006.7 |
| 20260504195252 | 72 | 188 | 7.0 | 17.0 | 0.00 | 0.00 | 0.00 | 50 | 1006.8 |
| 20260504194311 | 71 | 164 | 7.0 | 18.0 | 0.00 | 0.00 | 0.00 | 50 | 1006.9 |
| 20260504193308 | 72 | 191 | 9.0 | 18.0 | 0.00 | 0.00 | 0.00 | 48 | 1006.9 |
| 20260504192256 | 72 | 205 | 7.0 | 17.0 | 0.00 | 0.00 | 0.00 | 50 | 1007.0 |
| 20260504190109 | 72 | 63 | 8.0 | 19.0 | 0.00 | 0.00 | 0.00 | 49 | 1007.1 |
| 20260504185047 | 72 | 179 | 7.0 | 19.0 | 0.00 | 0.00 | 0.00 | 49 | 1007.2 |
| 20260504184047 | 72 | 178 | 7.0 | 18.0 | 0.00 | 0.00 | 0.00 | 49 | 1007.4 |
| 20260504183022 | 72 | 139 | 9.0 | 18.0 | 0.00 | 0.00 | 0.00 | 49 | 1007.6 |
| 20260504180931 | 71 | 185 | 7.0 | 17.0 | 0.00 | 0.00 | 0.00 | 48 | 1007.8 |
| 20260504175900 | 71 | 144 | 6.0 | 14.0 | 0.00 | 0.00 | 0.00 | 49 | 1007.9 |
| 20260504174852 | 71 | 179 | 3.0 | 16.0 | 0.00 | 0.00 | 0.00 | 50 | 1007.9 |
| 20260504173900 | 70 | 153 | 4.0 | 16.0 | 0.00 | 0.00 | 0.00 | 51 | 1008.1 |
| 20260504172835 | 69 | 164 | 6.0 | 12.0 | 0.00 | 0.00 | 0.00 | 49 | 1008.2 |
| 20260504170729 | 70 | 112 | 6.0 | 15.0 | 0.00 | 0.00 | 0.00 | 48 | 1008.3 |
| 20260504160411 | 68 | 156 | 5.0 | 13.0 | 0.00 | 0.00 | 0.00 | 50 | 1009.4 |
| 20260504150522 | 65 | 177 | 7.0 | 16.0 | 0.00 | 0.00 | 0.00 | 50 | 1010.2 |
| 20260504130231 | 58 | 224 | 3.0 | 12.0 | 0.00 | 0.00 | 0.00 | 59 | 1010.7 |
| 20260504120104 | 53 | 158 | 2.0 | 10.0 | 0.00 | 0.00 | 0.00 | 64 | 1010.6 |
| 20260504081506 | 47 | 164 | 0.0 | 0.0 | 0.00 | 0.00 | 0.00 | 76 | 1012.1 |
| 20260504080441 | 48 | 160 | 0.0 | 0.0 | 0.00 | 0.00 | 0.00 | 71 | 1012.1 |